This demonstration page uses our WeatherBlox Daily Observations layout. Learn more.

Left ArrowRight Arrow

Hourly Observations for September 12, 2016

Temp ( °F °C ) Dew Point ( °F °C ) Humidity (%) Winds ( mph kmh ) Pressure ( in mb ) Visibility ( mi km ) Precip ( " mm )
12:51 am 00:51 Clear 75 23.9 55 12.8 50 50 E 13 20 29.86 1011 10 16.0934 0 0
1:51 am 01:51 Clear 74 23.3 55 12.8 52 52 E 12 19 29.86 1011 10 16.0934 0 0
2:51 am 02:51 Clear 73 22.8 54 12.2 51 51 ENE 12 19 29.85 1011 10 16.0934 0 0
3:51 am 03:51 Clear 73 22.8 53 11.7 50 50 E 13 20 29.84 1011 10 16.0934 0 0
4:51 am 04:51 Clear 72 22.2 53 11.7 52 52 ENE 8 13 29.85 1011 10 16.0934 0 0
5:51 am 05:51 Clear 68 20 54 12.2 61 61 E 7 11 29.87 1012 10 16.0934 0 0
6:51 am 06:51 Sunny 71 21.7 56 13.3 59 59 E 5 7 29.88 1012 10 16.0934 0 0
7:51 am 07:51 Sunny 72 22.2 57 13.9 59 59 W 6 9 29.9 1013 10 16.0934 0 0
8:51 am 08:51 Sunny 77 25 57 13.9 50 50 NW 3 6 29.9 1013 10 16.0934 0 0
9:51 am 09:51 Sunny 81 27.2 56 13.3 42 42 W 7 11 29.9 1013 10 16.0934 0 0
10:51 am 10:51 Sunny 85 29.4 57 13.9 39 39 NW 8 13 29.88 1012 10 16.0934 0 0
11:51 am 11:51 Sunny 87 30.6 56 13.3 35 35 NW 8 13 29.85 1011 10 16.0934 0 0
12:51 pm 12:51 Sunny 88 31.1 57 13.9 35 35 NW 10 17 29.81 1009 10 16.0934 0 0
1:51 pm 13:51 Sunny 86 30 55 12.8 35 35 W 10 17 29.79 1009 10 16.0934 0 0
2:15 pm 14:15 Sunny with Nearby Thunderstorms 85 29.4 55 12.8 36 36 W 8 13 29.74 1007 10 16.0934 0 0
2:51 pm 14:51 Partly Cloudy with Nearby Thunderstorms 79 26.1 58 14.4 49 49 NW 17 28 29.8 1009 10 16.0934 0 0.0254
3:12 pm 15:12 Partly Cloudy with Thunderstorms 81 27.2 57 13.9 44 44 WNW 13 20 29.74 1007 10 16.0934 0 0
3:51 pm 15:51 Cloudy with Light Thunderstorms 72 22.2 61 16.1 68 68 W 3 6 29.85 1011 5 8.0467 0.03 0.762
4:09 pm 16:09 Cloudy with Nearby Thunderstorms 72 22.2 64 17.8 76 76 S 10 17 29.83 1010 10 16.0934 0 0.0254
4:18 pm 16:18 Cloudy with Light Rain 72 22.2 64 17.8 76 76 S 8 13 29.8 1009 10 16.0934 0 0.0254
4:30 pm 16:30 Cloudy with Nearby Thunderstorms 72 22.2 64 17.8 76 76 SSE 6 9 29.8 1009 10 16.0934 0 0.0254
4:51 pm 16:51 Mostly Cloudy 72 22.2 65 18.3 79 79 E 9 15 29.84 1010 10 16.0934 0 0.0254
5:51 pm 17:51 Mostly Sunny 72 22.2 62 16.7 71 71 SSE 13 20 29.85 1011 10 16.0934 0 0
6:51 pm 18:51 Clear 71 21.7 61 16.1 71 71 ESE 8 13 29.84 1011 10 16.0934 0 0
7:34 pm 19:34 Mostly Cloudy with Nearby Thunderstorms 71 21.7 60 15.6 68 68 WSW 12 19 29.88 1012 10 16.0934 0 0
7:51 pm 19:51 Cloudy with Nearby Thunderstorms 68 20 63 17.2 84 84 N 9 15 29.91 1013 6 9.65604 0.01 0.254
8:12 pm 20:12 Mostly Cloudy 68 20 62 16.7 81 81 NE 12 19 29.88 1012 10 16.0934 0 0.0254
8:51 pm 20:51 Partly Cloudy 70 21.1 60 15.6 71 71 ESE 10 17 29.87 1012 10 16.0934 0 0.0254
9:51 pm 21:51 Mostly Clear 67 19.4 62 16.7 84 84 SSE 7 11 29.87 1012 10 16.0934 0 0
10:51 pm 22:51 Partly Cloudy 69 20.6 61 16.1 76 76 ESE 3 6 29.9 1013 10 16.0934 0 0
11:51 pm 23:51 Mostly Cloudy 68 20 61 16.1 78 78 E 14 22 29.85 1011 10 16.0934 0 0.0254

Powered by AerisWeather